Погода в Дубинине

Россия / Красноярский край     55°40′16″N   89°06′20″E
темп.,
°C
ветер,
м/с
пор.,
м/с
влажн.,
%
обл.,
%
осадки,
мм/ч
давл.,
гПа
погр.,
м
21 апреля, ср
ср2101:00−8зюз497345 0.1 1025315
04:00−9юз3674100 0.0 1025181
07:00−7ююз3567100 0.0 1025223
10:00−3ююз2352100 0.0 10251049
13:00−1в2246100 0.1 10241530
16:00−1всв4351100 0.0 10251131
19:00−2всв4665100 0.0 1026378
22:00−4всв2476100 0.0 1029129
22 апреля, чт
чт2201:00−6ссв248241 0.0 103186
04:00−5св2683100 0.0 1032150
07:00−4св368453 0.0 1035231
10:00−1св456773 0.0 1037898
13:000св555798 0.1 10381522
16:00+1св455496 0.2 10391528
19:00+1ссв456397 0.3 1041667
22:00−1ссв398092 0.1 1043229
23 апреля, пт
пт2301:00−3св38915 0.1 1044238
04:00−3св37925 0.0 1044198
07:00−3св38855 0.0 1044273
10:00+1всв68545 0.0 10441125
13:00+3всв684545 0.0 10431592
16:00+5всв784586 0.0 10411762
19:00+3св5960100 0.0 1041861
22:00+1св41175100 0.0 1041406
24 апреля, сб
сб2401:000св51279100 0.0 1039450
04:00−1ссв51281100 0.0 1037475
07:000св51179100 0.0 1036595
10:00+2св696894 0.0 1034705
13:00+6всв6953100 0.1 10311868
16:00+5св6761100 0.1 10301351
19:00+4св5871100 0.4 1031858
22:00+1ссв3799100 0.2 1032319
25 апреля, вс
вс2501:00+1ссз2399100 0.4 1031114
04:000ссз2391100 0.1 1030129
07:00+1зсз3698100 0.3 1031268
10:00+1сз4799100 1.6 1031269
13:00+3сз3592100 2.4 1030445
16:00+5сз5772100 0.4 10291083
19:00+5зсз3672100 0.4 1030501
22:00+3зюз3681100 0.0 1031159